GW7700 Weather Reports


time (UTC)temp
C
wind
direction
speed
KPH
gust
KPH
rain 1hr
cm
rain 24hr
cm
rain mn
cm
humidity
%
barometer
mb
20260902225201 22 1 8.0 9.7 0.00 0.00 0.00 34 1011.9
20260902224700 22 344 6.4 8.0 0.00 0.00 0.00 34 1011.9
20260902224200 23 22 8.0 8.0 0.00 0.00 0.00 33 1011.5
20260902223700 23 16 8.0 8.0 0.00 0.00 0.00 32 1011.9
20260902223200 23 359 4.8 4.8 0.00 0.00 0.00 33 1011.5
20260902222700 23 22 6.4 8.0 0.00 0.00 0.00 33 1011.9
20260902222201 23 18 8.0 9.7 0.00 0.00 0.00 32 1011.9
20260902221702 23 18 6.4 8.0 0.00 0.00 0.00 32 1011.9
20260902221200 23 350 8.0 9.7 0.00 0.00 0.00 32 1011.9
20260902220701 23 7 6.4 8.0 0.00 0.00 0.00 32 1011.9
20260902220200 23 358 4.8 3.2 0.00 0.00 0.00 32 1011.9
20260902215700 23 18 8.0 9.7 0.00 0.00 0.00 33 1011.9
20260902215201 23 7 8.0 9.7 0.00 0.00 0.00 33 1011.9
20260902214700 23 21 6.4 9.7 0.00 0.00 0.00 32 1011.9
20260902214200 23 12 8.0 9.7 0.00 0.00 0.00 32 1011.9
20260902213700 23 350 6.4 8.0 0.00 0.00 0.00 33 1011.9
20260902213200 23 357 6.4 8.0 0.00 0.00 0.00 33 1011.9
20260902212701 23 344 4.8 4.8 0.00 0.00 0.00 33 1011.9
20260902212200 23 346 4.8 3.2 0.00 0.00 0.00 33 1011.9
20260902211700 23 21 8.0 8.0 0.00 0.00 0.00 33 1011.9
20260902211201 23 3 4.8 3.2 0.00 0.00 0.00 32 1012.2
20260902210700 23 28 9.7 11.3 0.00 0.00 0.00 32 1012.2
20260902210200 23 16 11.3 12.9 0.00 0.00 0.00 32 1012.2
20260902205700 23 7 4.8 8.0 0.00 0.00 0.00 32 1012.2
20260902205200 23 359 8.0 8.0 0.00 0.00 0.00 32 1012.2
20260902204700 23 20 8.0 9.7 0.00 0.00 0.00 33 1012.2
20260902204200 23 20 8.0 9.7 0.00 0.00 0.00 33 1012.2
20260902203702 23 16 9.7 11.3 0.00 0.00 0.00 33 1012.2
20260902203200 23 358 6.4 8.0 0.00 0.00 0.00 32 1012.2
20260902202700 23 20 8.0 9.7 0.00 0.00 0.00 33 1012.2
20260902202201 23 352 6.4 9.7 0.00 0.00 0.00 35 1012.5
20260902201700 23 33 8.0 9.7 0.00 0.00 0.00 35 1012.2
20260902201200 23 2 6.4 8.0 0.00 0.00 0.00 36 1012.2
20260902200700 23 19 8.0 9.7 0.00 0.00 0.00 37 1012.2
20260902200201 23 23 8.0 9.7 0.00 0.00 0.00 37 1012.5
20260902195700 23 6 6.4 8.0 0.00 0.00 0.00 37 1012.5
20260902195200 23 19 8.0 9.7 0.00 0.00 0.00 38 1012.5
20260902194700 23 26 8.0 9.7 0.00 0.00 0.00 40 1012.5
20260902194200 23 26 9.7 11.3 0.00 0.00 0.00 39 1012.5
20260902193700 23 24 9.7 11.3 0.00 0.00 0.00 39 1012.5
20260902193202 23 23 9.7 11.3 0.00 0.00 0.00 39 1012.2
20260902192700 23 19 12.9 12.9 0.00 0.00 0.00 39 1012.5
20260902192202 23 16 8.0 8.0 0.00 0.00 0.00 40 1012.5
20260902191701 23 337 8.0 8.0 0.00 0.00 0.00 41 1012.5
20260902191200 23 15 6.4 8.0 0.00 0.00 0.00 41 1012.5
20260902190700 23 354 6.4 4.8 0.00 0.00 0.00 41 1012.5
20260902190200 23 355 8.0 9.7 0.00 0.00 0.00 41 1012.5
20260902185701 23 350 6.4 8.0 0.00 0.00 0.00 40 1012.5
20260902185202 23 28 4.8 8.0 0.00 0.00 0.00 40 1012.5
20260902184701 23 341 8.0 9.7 0.00 0.00 0.00 38 1012.2
20260902184200 23 348 11.3 11.3 0.00 0.00 0.00 37 1012.5
20260902183700 23 343 11.3 12.9 0.00 0.00 0.00 38 1012.5
20260902183202 23 343 11.3 12.9 0.00 0.00 0.00 38 1012.5
20260902182702 23 351 9.7 11.3 0.00 0.00 0.00 38 1012.2
20260902182200 23 338 8.0 9.7 0.00 0.00 0.00 38 1012.2
20260902181700 23 343 8.0 9.7 0.00 0.00 0.00 39 1012.2
20260902181201 24 352 9.7 11.3 0.00 0.00 0.00 38 1012.2
20260902180700 24 341 9.7 11.3 0.00 0.00 0.00 39 1012.2
20260902180201 24 355 9.7 11.3 0.00 0.00 0.00 40 1012.2
20260902175701 24 342 8.0 9.7 0.00 0.00 0.00 40 1012.2
20260902175201 24 344 11.3 12.9 0.00 0.00 0.00 41 1011.9
20260902174700 24 17 9.7 11.3 0.00 0.00 0.00 42 1011.9
20260902174200 24 13 12.9 14.5 0.00 0.00 0.00 41 1011.9
20260902173701 24 350 14.5 16.1 0.00 0.00 0.00 41 1012.2
20260902173201 24 326 11.3 12.9 0.00 0.00 0.00 43 1011.9
20260902172701 24 358 12.9 14.5 0.00 0.00 0.00 44 1011.9
20260902172201 24 31 9.7 11.3 0.00 0.00 0.00 45 1011.9
20260902171700 24 352 8.0 11.3 0.00 0.00 0.00 45 1011.9
20260902171200 24 358 11.3 11.3 0.00 0.00 0.00 46 1011.9
20260902170700 25 351 9.7 11.3 0.00 0.00 0.00 45 1011.9
20260902170201 24 345 9.7 9.7 0.00 0.00 0.00 45 1011.9
20260902165701 25 334 11.3 12.9 0.00 0.00 0.00 45 1011.9
20260902165202 25 333 9.7 9.7 0.00 0.00 0.00 45 1011.9
20260902164701 25 343 8.0 9.7 0.00 0.00 0.00 45 1011.9
20260902164203 25 341 8.0 9.7 0.00 0.00 0.00 45 1011.5
20260902163700 25 322 8.0 9.7 0.00 0.00 0.00 45 1011.5
20260902163201 25 319 8.0 9.7 0.00 0.00 0.00 45 1011.5
20260902162701 25 259 9.7 9.7 0.00 0.00 0.00 45 1011.5
20260902162200 25 327 11.3 14.5 0.00 0.00 0.00 46 1011.5
20260902161700 25 324 11.3 12.9 0.00 0.00 0.00 46 1011.5
20260902161201 25 294 8.0 9.7 0.00 0.00 0.00 46 1011.5
20260902160700 25 296 11.3 11.3 0.00 0.00 0.00 46 1011.9
20260902160201 25 327 8.0 9.7 0.00 0.00 0.00 46 1011.9
20260902155700 25 305 11.3 11.3 0.00 0.00 0.00 46 1011.5
20260902155201 25 227 6.4 9.7 0.00 0.00 0.00 44 1011.9
20260902154701 26 278 9.7 12.9 0.00 0.00 0.00 45 1011.5
20260902154201 26 314 11.3 12.9 0.00 0.00 0.00 40 1011.5
20260902153700 26 190 3.2 4.8 0.00 0.00 0.00 39 1011.5
20260902153200 26 288 8.0 11.3 0.00 0.00 0.00 39 1011.5
20260902152700 26 281 4.8 8.0 0.00 0.00 0.00 38 1011.5
20260902152200 27 254 4.8 4.8 0.00 0.00 0.00 36 1011.5
20260902151700 28 286 3.2 4.8 0.00 0.00 0.00 23 1011.5
20260902151200 28 204 4.8 4.8 0.00 0.00 0.00 23 1011.5
20260902150702 28 127 1.6 1.6 0.00 0.00 0.00 23 1011.5
20260902150203 28 328 11.3 11.3 0.00 0.00 0.00 22 1011.5
20260902145701 28 4 1.6 1.6 0.00 0.00 0.00 22 1011.9
20260902145201 28 138 3.2 3.2 0.00 0.00 0.00 23 1011.5
20260902144700 28 146 9.7 11.3 0.00 0.00 0.00 22 1011.5
20260902144201 28 132 3.2 3.2 0.00 0.00 0.00 23 1011.5
20260902143700 28 119 6.4 8.0 0.00 0.00 0.00 23 1011.5
20260902143201 29 281 3.2 3.2 0.00 0.00 0.00 22 1011.5
20260902142701 29 300 6.4 9.7 0.00 0.00 0.00 22 1011.9
20260902142200 29 207 6.4 8.0 0.00 0.00 0.00 22 1011.9
20260902141701 28 118 1.6 1.6 0.00 0.00 0.00 23 1011.5
20260902141201 30 134 9.7 11.3 0.00 0.00 0.00 22 1011.5
20260902140700 30 223 1.6 1.6 0.00 0.00 0.00 22 1011.5
20260902140202 30 157 1.6 1.6 0.00 0.00 0.00 22 1011.5
20260902135714 28 302 1.6 1.6 0.00 0.00 0.00 23 1011.5
20260902135201 28 103 4.8 4.8 0.00 0.00 0.00 23 1011.5
20260902134702 30 216 3.2 3.2 0.00 0.00 0.00 22 1011.9
20260902134201 30 240 4.8 8.0 0.00 0.00 0.00 22 1011.9
20260902133700 29 236 3.2 3.2 0.00 0.00 0.00 23 1011.9
20260902133200 30 33 8.0 11.3 0.00 0.00 0.00 23 1011.9
20260902132700 29 252 1.6 3.2 0.00 0.00 0.00 23 1011.9
20260902132200 28 174 11.3 11.3 0.00 0.00 0.00 23 1011.9
20260902131701 28 186 9.7 12.9 0.00 0.00 0.00 23 1011.9
20260902131202 28 231 8.0 9.7 0.00 0.00 0.00 24 1011.9
20260902130701 29 220 9.7 11.3 0.00 0.00 0.00 24 1011.5
20260902130201 29 298 3.2 3.2 0.00 0.00 0.00 23 1011.9
20260902125702 30 208 4.8 4.8 0.00 0.00 0.00 23 1011.9
20260902125200 29 205 6.4 8.0 0.00 0.00 0.00 23 1011.9
20260902124701 29 219 4.8 4.8 0.00 0.00 0.00 24 1011.9
20260902124200 28 188 6.4 8.0 0.00 0.00 0.00 24 1011.9
20260902123700 28 170 4.8 4.8 0.00 0.00 0.00 24 1011.9
20260902123200 28 320 11.3 12.9 0.00 0.00 0.00 24 1011.9
20260902122700 28 223 4.8 8.0 0.00 0.00 0.00 24 1012.2
20260902122201 28 130 11.3 14.5 0.00 0.00 0.00 24 1011.9
20260902121700 28 310 12.9 14.5 0.00 0.00 0.00 24 1012.2
20260902121207 28 125 16.1 20.9 0.00 0.00 0.00 24 1012.2
20260902120700 28 185 12.9 14.5 0.00 0.00 0.00 24 1012.2
20260902120200 28 86 6.4 9.7 0.00 0.00 0.00 23 1012.2
20260902115701 28 86 6.4 9.7 0.00 0.00 0.00 23 1012.2
20260902115201 28 86 6.4 9.7 0.00 0.00 0.00 23 1012.2
20260902114700 28 233 6.4 8.0 0.00 0.00 0.00 23 1012.2
20260902114200 30 122 11.3 12.9 0.00 0.00 0.00 22 1012.5
20260902113702 30 118 8.0 9.7 0.00 0.00 0.00 21 1012.2
20260902113200 28 337 1.6 1.6 0.00 0.00 0.00 23 1012.2
20260902112700 28 163 3.2 3.2 0.00 0.00 0.00 23 1012.5
20260902112200 28 215 8.0 12.9 0.00 0.00 0.00 23 1012.5
20260902111700 29 150 6.4 8.0 0.00 0.00 0.00 23 1012.5
20260902111203 29 196 8.0 11.3 0.00 0.00 0.00 22 1012.5
20260902110701 29 196 9.7 11.3 0.00 0.00 0.00 23 1012.5
20260902110200 28 282 3.2 4.8 0.00 0.00 0.00 24 1012.2
20260902105700 28 201 3.2 4.8 0.00 0.00 0.00 24 1012.5
20260902105200 28 327 3.2 3.2 0.00 0.00 0.00 24 1012.5
20260902104711 28 246 14.5 22.5 0.00 0.00 0.00 23 1012.9
20260902104200 28 104 9.7 9.7 0.00 0.00 0.00 23 1012.9
20260902103700 28 132 3.2 4.8 0.00 0.00 0.00 24 1012.5
20260902103201 28 219 9.7 11.3 0.00 0.00 0.00 24 1012.9
20260902102702 28 203 17.7 20.9 0.00 0.00 0.00 24 1012.5
20260902102200 28 201 12.9 16.1 0.00 0.00 0.00 24 1012.9
20260902101702 28 201 4.8 8.0 0.00 0.00 0.00 24 1012.5
20260902101202 28 176 14.5 17.7 0.00 0.00 0.00 25 1012.5
20260902100701 27 213 6.4 8.0 0.00 0.00 0.00 25 1012.5
20260902100201 27 117 1.6 3.2 0.00 0.00 0.00 25 1012.5
20260902095700 27 190 20.9 24.1 0.00 0.00 0.00 25 1012.9
20260902095200 27 201 14.5 16.1 0.00 0.00 0.00 25 1012.9
20260902094701 27 189 6.4 8.0 0.00 0.00 0.00 25 1012.9
20260902094201 27 216 16.1 20.9 0.00 0.00 0.00 26 1012.9
20260902093700 27 151 14.5 17.7 0.00 0.00 0.00 26 1012.5
20260902093201 26 104 6.4 8.0 0.00 0.00 0.00 31 1013.2
20260902092700 26 104 6.4 8.0 0.00 0.00 0.00 31 1013.2
20260902092201 26 104 6.4 8.0 0.00 0.00 0.00 31 1013.2
20260902091700 26 104 6.4 8.0 0.00 0.00 0.00 31 1013.2
20260902091201 26 104 6.4 8.0 0.00 0.00 0.00 31 1013.2
20260902090701 26 104 6.4 8.0 0.00 0.00 0.00 31 1013.2
20260902090201 26 104 6.4 8.0 0.00 0.00 0.00 31 1013.2
20260902085700 26 104 6.4 8.0 0.00 0.00 0.00 31 1013.2
20260902085200 26 104 6.4 8.0 0.00 0.00 0.00 31 1013.2
20260902084701 26 104 6.4 8.0 0.00 0.00 0.00 31 1013.2
20260902084200 26 104 6.4 8.0 0.00 0.00 0.00 31 1013.2
20260902083701 26 104 6.4 8.0 0.00 0.00 0.00 31 1013.2
20260902083200 26 104 6.4 8.0 0.00 0.00 0.00 31 1013.2
20260902082700 26 104 6.4 8.0 0.00 0.00 0.00 31 1013.2
20260902082200 26 104 6.4 8.0 0.00 0.00 0.00 31 1013.2
20260902081700 26 104 6.4 8.0 0.00 0.00 0.00 31 1013.2
20260902081201 26 104 6.4 8.0 0.00 0.00 0.00 31 1013.2
20260902080700 26 104 6.4 8.0 0.00 0.00 0.00 31 1013.2
20260902080200 26 104 6.4 8.0 0.00 0.00 0.00 31 1013.2
20260902075700 26 104 6.4 8.0 0.00 0.00 0.00 31 1013.2
20260902075201 26 104 6.4 8.0 0.00 0.00 0.00 31 1013.2
20260902074701 26 104 6.4 8.0 0.00 0.00 0.00 31 1013.2
20260902074201 26 191 8.0 12.9 0.00 0.00 0.00 31 1013.2
20260902073700 26 123 4.8 4.8 0.00 0.00 0.00 30 1013.2
20260902073200 26 229 8.0 11.3 0.00 0.00 0.00 30 1013.2
20260902072700 26 138 8.0 9.7 0.00 0.00 0.00 30 1013.2
20260902072200 26 198 4.8 4.8 0.00 0.00 0.00 30 1013.2
20260902071700 25 186 6.4 8.0 0.00 0.00 0.00 30 1013.2
20260902071200 25 154 8.0 9.7 0.00 0.00 0.00 29 1013.2
20260902070700 25 176 6.4 8.0 0.00 0.00 0.00 28 1013.2
20260902070201 25 123 4.8 4.8 0.00 0.00 0.00 29 1013.5
20260902065701 25 159 3.2 3.2 0.00 0.00 0.00 29 1013.2
20260902065200 25 187 4.8 9.7 0.00 0.00 0.00 28 1013.5
20260902064700 25 208 1.6 1.6 0.00 0.00 0.00 29 1013.5
20260902064204 25 192 9.7 11.3 0.00 0.00 0.00 28 1013.5
20260902063700 25 206 4.8 4.8 0.00 0.00 0.00 27 1013.2
20260902063201 25 207 4.8 8.0 0.00 0.00 0.00 27 1013.5
20260902062701 25 225 1.6 1.6 0.00 0.00 0.00 27 1013.5
20260902062201 25 197 4.8 8.0 0.00 0.00 0.00 24 1013.5
20260902061700 25 200 6.4 9.7 0.00 0.00 0.00 22 1013.5
20260902061201 25 218 8.0 11.3 0.00 0.00 0.00 23 1013.2
20260902060700 26 194 3.2 3.2 0.00 0.00 0.00 21 1013.2
20260902055711 27 203 3.2 3.2 0.00 0.00 0.00 18 1013.2
20260902055200 27 179 3.2 1.6 0.00 0.00 0.00 17 1012.9
20260902054700 27 179 3.2 3.2 0.00 0.00 0.00 17 1012.9
20260902054202 26 98 1.6 1.6 0.00 0.00 0.00 17 1012.9
20260902053701 27 78 1.6 1.6 0.00 0.00 0.00 17 1013.2
20260902053201 26 47 0.0 0.0 0.00 0.00 0.00 18 1013.2
20260902052700 25 7 1.6 1.6 0.00 0.00 0.00 20 1013.2
20260902052201 24 52 4.8 4.8 0.00 0.00 0.00 19 1013.2
20260902051701 24 354 4.8 4.8 0.00 0.00 0.00 21 1012.9
20260902051200 23 347 8.0 8.0 0.00 0.00 0.00 21 1013.2
20260902050700 23 23 9.7 11.3 0.00 0.00 0.00 22 1012.9
20260902050200 23 61 8.0 9.7 0.00 0.00 0.00 23 1013.2
20260902045700 22 342 4.8 4.8 0.00 0.00 0.00 23 1013.2
20260902045200 22 281 8.0 9.7 0.00 0.00 0.00 24 1012.9
20260902044700 22 15 9.7 11.3 0.00 0.00 0.00 24 1013.2
20260902044200 22 31 8.0 11.3 0.00 0.00 0.00 25 1012.9
20260902043700 21 21 9.7 12.9 0.00 0.00 0.00 26 1013.2
20260902043200 21 26 11.3 14.5 0.00 0.00 0.00 26 1013.2
20260902042700 21 18 11.3 14.5 0.00 0.00 0.00 27 1013.2
20260902042203 21 31 11.3 14.5 0.00 0.00 0.00 27 1013.2
20260902041700 21 56 14.5 16.1 0.00 0.00 0.00 27 1013.2
20260902041200 20 37 8.0 9.7 0.00 0.00 0.00 27 1013.2
20260902040700 20 14 11.3 12.9 0.00 0.00 0.00 28 1012.9
20260902040200 20 28 6.4 9.7 0.00 0.00 0.00 29 1013.2
20260902035700 20 28 9.7 11.3 0.00 0.00 0.00 29 1012.9
20260902035200 20 23 8.0 11.3 0.00 0.00 0.00 29 1012.9
20260902034700 20 26 12.9 12.9 0.00 0.00 0.00 29 1012.9
20260902034201 20 155 8.0 9.7 0.00 0.00 0.00 28 1012.9
20260902033700 20 20 11.3 12.9 0.00 0.00 0.00 28 1012.9
20260902033200 20 20 11.3 12.9 0.00 0.00 0.00 28 1012.9
20260902032700 20 8 12.9 14.5 0.00 0.00 0.00 29 1012.9
20260902032203 20 27 14.5 14.5 0.00 0.00 0.00 29 1012.9
20260902031700 20 29 14.5 14.5 0.00 0.00 0.00 28 1012.5
20260902031201 20 29 16.1 16.1 0.00 0.00 0.00 28 1012.5
20260902030700 20 28 9.7 11.3 0.00 0.00 0.00 27 1012.5
20260902030200 20 56 4.8 4.8 0.00 0.00 0.00 27 1012.5
20260902025701 20 20 11.3 11.3 0.00 0.00 0.00 27 1012.5
20260902025200 20 18 14.5 14.5 0.00 0.00 0.00 28 1012.5
20260902024700 19 17 11.3 11.3 0.00 0.00 0.00 27 1012.5
20260902024201 20 10 4.8 4.8 0.00 0.00 0.00 27 1012.5
20260902023700 19 25 11.3 11.3 0.00 0.00 0.00 25 1012.5
20260902023200 20 19 4.8 4.8 0.00 0.00 0.00 25 1012.9
20260902022701 20 26 8.0 11.3 0.00 0.00 0.00 25 1012.5
20260902022200 20 18 8.0 11.3 0.00 0.00 0.00 25 1012.5
20260902021702 20 28 11.3 11.3 0.00 0.00 0.00 25 1012.5
20260902021201 20 13 12.9 16.1 0.00 0.00 0.00 25 1012.5
20260902020700 20 356 9.7 11.3 0.00 0.00 0.00 25 1012.5
20260902020200 20 27 12.9 14.5 0.00 0.00 0.00 25 1012.5
20260902015700 20 20 11.3 14.5 0.00 0.00 0.00 26 1012.5
20260902015200 20 355 12.9 14.5 0.00 0.00 0.00 26 1012.5
20260902014701 20 31 14.5 14.5 0.00 0.00 0.00 26 1012.5
20260902014200 20 12 9.7 11.3 0.00 0.00 0.00 25 1012.5
20260902013700 20 22 11.3 12.9 0.00 0.00 0.00 25 1012.5
20260902013200 20 24 14.5 14.5 0.00 0.00 0.00 25 1012.2
20260902012701 20 19 11.3 12.9 0.00 0.00 0.00 24 1012.5
20260902012200 20 19 11.3 12.9 0.00 0.00 0.00 23 1012.5
20260902011700 20 106 4.8 4.8 0.00 0.00 0.00 23 1012.5
20260902011201 20 11 9.7 12.9 0.00 0.00 0.00 23 1012.2
20260902010702 20 21 9.7 11.3 0.00 0.00 0.00 23 1012.5
20260902010203 20 18 12.9 12.9 0.00 0.00 0.00 23 1012.5
20260902005700 20 24 9.7 9.7 0.00 0.00 0.00 22 1012.5
20260902005202 20 58 4.8 3.2 0.00 0.00 0.00 22 1012.2
20260902004701 20 51 4.8 4.8 0.00 0.00 0.00 23 1012.5
20260902004200 20 24 11.3 11.3 0.00 0.00 0.00 23 1012.5
20260902003702 21 23 6.4 8.0 0.00 0.00 0.00 22 1012.5
20260902003201 21 22 9.7 9.7 0.00 0.00 0.00 22 1012.2
20260902002700 21 17 8.0 8.0 0.00 0.00 0.00 22 1012.5
20260902002200 21 56 4.8 8.0 0.00 0.00 0.00 22 1012.2
20260902001702 21 28 6.4 8.0 0.00 0.00 0.00 22 1012.5
20260902001203 20 15 11.3 11.3 0.00 0.00 0.00 24 1012.2
20260902000700 20 20 11.3 14.5 0.00 0.00 0.00 26 1012.2
20260902000200 20 28 12.9 14.5 0.00 0.00 0.00 27 1012.2
20260901235700 20 31 9.7 9.7 0.00 0.00 0.00 24 1012.5
20260901235200 20 31 11.3 12.9 0.00 0.00 0.00 27 1012.2
20260901234703 20 24 16.1 17.7 0.00 0.00 0.00 27 1012.5
20260901234200 20 20 14.5 14.5 0.00 0.00 0.00 27 1012.2
20260901233700 20 16 19.3 22.5 0.00 0.00 0.00 31 1012.5
20260901233200 20 10 17.7 17.7 0.00 0.00 0.00 30 1012.5
20260901232700 20 10 14.5 16.1 0.00 0.00 0.00 29 1012.2
20260901232200 20 14 17.7 17.7 0.00 0.00 0.00 32 1012.2
20260901231702 20 7 14.5 16.1 0.00 0.00 0.00 32 1012.2
20260901231200 20 16 17.7 17.7 0.00 0.00 0.00 34 1012.2
20260901230702 20 28 14.5 16.1 0.00 0.00 0.00 34 1012.2
20260901230201 20 21 14.5 14.5 0.00 0.00 0.00 33 1012.5
20260901225700 20 188 14.5 17.7 0.00 0.00 0.00 36 1012.2